This is the latest recevied weather packets stored in our database for station/object KF3BH. If no packets are shown the sender has not sent any weather packets the latest 10 day(s).
| Time | Temp. | Humidity | Pressure | Rain* | Wind** | Luminosity | Snow |
|---|---|---|---|---|---|---|---|
| 1777988425 | 21.67° C | 53% | 1008.8 hPa | 0 mm | - | 475 W/m² | - |
| 1777987825 | 21.11° C | 53% | 1009 hPa | 0 mm | - | 445 W/m² | - |
| 1777984825 | 18.89° C | 60% | 1009.3 hPa | 0 mm | - | 338 W/m² | - |
| 1777979425 | 15.56° C | 65% | 1008.9 hPa | 0 mm | - | 47 W/m² | - |
| 1777978225 | 15.56° C | 67% | 1008.9 hPa | 0 mm | - | 19 W/m² | - |
| 1777974025 | 16.11° C | 65% | 1008.4 hPa | 0 mm | - | 0 W/m² | - |
| 1777973425 | 16.11° C | 64% | 1008.2 hPa | 0 mm | - | 0 W/m² | - |
| 1777969225 | 16.11° C | 61% | 1008.3 hPa | 0 mm | - | 0 W/m² | - |
| 1777968625 | 16.67° C | 60% | 1008.3 hPa | 0 mm | - | 0 W/m² | - |
| 1777963825 | 16.67° C | 57% | 1008.1 hPa | 0 mm | - | 0 W/m² | - |
| 1777963225 | 16.67° C | 57% | 1008.2 hPa | 0 mm | - | 0 W/m² | - |
| 1777960225 | 16.67° C | 55% | 1008.6 hPa | 0 mm | - | 0 W/m² | - |
| 1777958425 | 16.67° C | 54% | 1008.5 hPa | 0 mm | - | 0 W/m² | - |
| 1777955425 | 16.67° C | 53% | 1008.4 hPa | 0 mm | - | 0 W/m² | - |
| 1777950025 | 17.78° C | 49% | 1008.3 hPa | 0 mm | - | 0 W/m² | - |
| 1777949425 | 17.78° C | 50% | 1008.3 hPa | 0 mm | - | 0 W/m² | - |
| 1777942825 | 19.44° C | 46% | 1008.2 hPa | 0 mm | - | 0 W/m² | - |
| 1777942225 | 19.44° C | 45% | 1008 hPa | 0 mm | - | 0 W/m² | - |
| 1777941025 | 19.44° C | 44% | 1007.9 hPa | 0 mm | - | 0 W/m² | - |
| 1777940426 | 19.44° C | 44% | 1007.9 hPa | 0 mm | - | 0 W/m² | - |
| 1777938625 | 20° C | 43% | 1007.6 hPa | 0 mm | - | 9 W/m² | - |
| 1777936825 | 20.56° C | 41% | 1007.3 hPa | 0 mm | - | 25 W/m² | - |
| 1777929025 | 22.78° C | 36% | 1007.6 hPa | 0 mm | - | 403 W/m² | - |
| 1777927225 | 22.78° C | 36% | 1007.9 hPa | 0 mm | - | 469 W/m² | - |
| 1777912826 | 20.56° C | 40% | 1011.1 hPa | 0 mm | - | 726 W/m² | - |
* Rain latest hour (hover to see other rain measurements)
** Current wind speed in m/s (hover to see current wind gust speed)